When you browse on this site, cookies collect data to enhance your experience and personalize the content and advertising you see.
Visit our Privacy Policy to learn more. By continuing to use the site, you agree to this use of cookies and data.
  • In Denmark
  • List of Countries
  • For 7 days
  • Water Temperature
  • Weather Map
  • Weather Widgets
  • user-avatar
    Login

    Hourly Weather Chroscin

    Today, 6 December, Friday

    Time Temperature Precipitation Wind Pressure Humidity
    00:00 -4°C° 0 mm 5 mps 751 mmHg 73%
    01:00 -4°C° 0 mm 5 mps 751 mmHg 75%
    02:00 -4°C° 0 mm 5 mps 751 mmHg 74%
    03:00 -4°C° 0 mm 5 mps 750 mmHg 73%
    04:00 -4°C° 0 mm 5 mps 749 mmHg 72%
    05:00 -4°C° 0 mm 5 mps 749 mmHg 71%
    06:00 -4°C° 0 mm 6 mps 749 mmHg 71%
    07:00 -4°C° 0 mm 5 mps 749 mmHg 70%
    08:00 -3°C° 0 mm 6 mps 749 mmHg 65%
    09:00 -2°C° 0 mm 7 mps 748 mmHg 60%
    10:00 -2°C° 0 mm 7 mps 748 mmHg 55%
    11:00 -1°C° 0 mm 7 mps 748 mmHg 52%
    12:00 0°C° 0 mm 7 mps 748 mmHg 49%
    13:00 +2°C° 0 mm 7 mps 748 mmHg 46%
    14:00 +1°C° 0 mm 6 mps 747 mmHg 49%
    15:00 -1°C° 0 mm 6 mps 747 mmHg 52%
    16:00 -1°C° 0 mm 5 mps 746 mmHg 55%
    17:00 -1°C° 0 mm 5 mps 746 mmHg 55%
    18:00 -1°C° 0 mm 5 mps 746 mmHg 56%
    19:00 -1°C° 0 mm 5 mps 746 mmHg 56%
    20:00 -1°C° 0 mm 5 mps 746 mmHg 56%
    21:00 -1°C° 0 mm 5 mps 746 mmHg 56%
    22:00 -1°C° 0 mm 5 mps 745 mmHg 56%
    23:00 -1°C° 0 mm 5 mps 745 mmHg 57%

    Tomorrow, 7 December, Saturday

    Time Temperature Precipitation Wind Pressure Humidity
    00:00 -1°C° 0 mm 5 mps 745 mmHg 57%
    01:00 -1°C° 0 mm 5 mps 745 mmHg 57%
    02:00 -1°C° 0 mm 5 mps 744 mmHg 58%
    03:00 -1°C° 0 mm 5 mps 743 mmHg 60%
    04:00 -1°C° 0 mm 5 mps 743 mmHg 61%
    05:00 -1°C° 0 mm 5 mps 743 mmHg 61%
    06:00 -1°C° 0 mm 6 mps 743 mmHg 61%
    07:00 +1°C° 0 mm 6 mps 742 mmHg 61%
    08:00 +1°C° 0.1 mm 6 mps 742 mmHg 68%
    09:00 0°C° 0.1 mm 7 mps 742 mmHg 74%
    10:00 +2°C° 0.1 mm 7 mps 742 mmHg 81%
    11:00 +3°C° 0 mm 7 mps 742 mmHg 79%
    12:00 +3°C° 0 mm 7 mps 741 mmHg 78%
    13:00 +4°C° 0 mm 7 mps 741 mmHg 76%
    14:00 +4°C° 0.2 mm 7 mps 741 mmHg 82%
    15:00 +4°C° 0.2 mm 7 mps 741 mmHg 87%
    16:00 +4°C° 0.2 mm 7 mps 741 mmHg 92%
    17:00 +4°C° 0.5 mm 7 mps 741 mmHg 91%
    18:00 +4°C° 0.5 mm 7 mps 742 mmHg 90%
    19:00 +5°C° 0.5 mm 7 mps 742 mmHg 88%
    20:00 +4°C° 0.1 mm 6 mps 743 mmHg 88%
    21:00 +4°C° 0.1 mm 6 mps 743 mmHg 87%
    22:00 +5°C° 0.1 mm 5 mps 743 mmHg 87%
    23:00 +3°C° 0.2 mm 5 mps 744 mmHg 86%

    Day after tomorrow, 8 December, Sunday

    Time Temperature Precipitation Wind Pressure Humidity
    00:00 +3°C° 0.2 mm 5 mps 744 mmHg 85%
    01:00 +3°C° 0.2 mm 6 mps 744 mmHg 84%
    02:00 +3°C° 0 mm 5 mps 744 mmHg 85%
    03:00 +2°C° 0 mm 5 mps 744 mmHg 87%
    04:00 +1°C° 0 mm 5 mps 744 mmHg 88%
    05:00 +2°C° 0 mm 5 mps 744 mmHg 90%
    06:00 +2°C° 0 mm 5 mps 745 mmHg 91%
    07:00 +2°C° 0 mm 5 mps 745 mmHg 92%
    08:00 +3°C° 0 mm 5 mps 745 mmHg 90%
    09:00 +3°C° 0 mm 6 mps 745 mmHg 88%
    10:00 +4°C° 0 mm 6 mps 745 mmHg 85%
    11:00 +4°C° 0 mm 6 mps 744 mmHg 83%
    12:00 +4°C° 0 mm 6 mps 744 mmHg 80%
    13:00 +5°C° 0 mm 7 mps 743 mmHg 77%
    14:00 +5°C° 0 mm 6 mps 743 mmHg 76%
    15:00 +4°C° 0 mm 6 mps 742 mmHg 75%
    16:00 +4°C° 0 mm 6 mps 742 mmHg 74%
    17:00 +5°C° 0 mm 7 mps 741 mmHg 73%
    18:00 +5°C° 0 mm 7 mps 741 mmHg 72%
    19:00 +5°C° 0 mm 8 mps 740 mmHg 71%
    20:00 +5°C° 0.1 mm 8 mps 740 mmHg 74%
    21:00 +5°C° 0.1 mm 8 mps 739 mmHg 77%
    22:00 +5°C° 0.1 mm 8 mps 738 mmHg 80%
    23:00 +5°C° 0.1 mm 8 mps 738 mmHg 82%

    9 December, Monday

    Time Temperature Precipitation Wind Pressure Humidity
    00:00 +6°C° 0.1 mm 7 mps 738 mmHg 83%
    01:00 +6°C° 0.1 mm 7 mps 738 mmHg 85%
    02:00 +7°C° 0.4 mm 6 mps 738 mmHg 87%
    03:00 +5°C° 0.4 mm 6 mps 737 mmHg 88%
    04:00 +6°C° 0.4 mm 5 mps 737 mmHg 89%
    05:00 +6°C° 0.5 mm 5 mps 737 mmHg 87%
    06:00 +6°C° 0.5 mm 5 mps 737 mmHg 85%
    07:00 +6°C° 0.5 mm 4 mps 737 mmHg 82%
    08:00 +6°C° 0 mm 5 mps 737 mmHg 80%
    09:00 +6°C° 0 mm 5 mps 737 mmHg 79%
    10:00 +5°C° 0 mm 6 mps 738 mmHg 77%
    11:00 +6°C° 0 mm 5 mps 738 mmHg 75%
    12:00 +6°C° 0 mm 5 mps 738 mmHg 74%
    13:00 +6°C° 0 mm 4 mps 738 mmHg 72%
    14:00 +6°C° 0 mm 4 mps 738 mmHg 76%
    15:00 +5°C° 0 mm 3 mps 738 mmHg 79%
    16:00 +5°C° 0 mm 2 mps 737 mmHg 83%
    17:00 +4°C° 0 mm 3 mps 738 mmHg 83%
    18:00 +4°C° 0 mm 3 mps 738 mmHg 84%
    19:00 +3°C° 0 mm 3 mps 738 mmHg 84%
    20:00 +3°C° 0 mm 3 mps 738 mmHg 83%
    21:00 +3°C° 0 mm 3 mps 738 mmHg 83%
    22:00 +3°C° 0 mm 3 mps 738 mmHg 82%
    23:00 +3°C° 0 mm 3 mps 738 mmHg 83%

    10 December, Tuesday

    Time Temperature Precipitation Wind Pressure Humidity
    00:00 +2°C° 0 mm 3 mps 738 mmHg 84%
    01:00 +2°C° 0 mm 3 mps 738 mmHg 85%
    02:00 +2°C° 0 mm 3 mps 738 mmHg 86%
    03:00 +1°C° 0 mm 3 mps 738 mmHg 87%
    04:00 +1°C° 0 mm 3 mps 738 mmHg 89%
    05:00 +2°C° 0 mm 3 mps 738 mmHg 87%
    06:00 +1°C° 0 mm 4 mps 738 mmHg 86%
    07:00 +3°C° 0 mm 4 mps 738 mmHg 84%
    08:00 +3°C° 0.1 mm 3 mps 739 mmHg 86%
    09:00 +4°C° 0.1 mm 2 mps 739 mmHg 87%
    10:00 +4°C° 0.1 mm 2 mps 740 mmHg 89%
    11:00 +4°C° 0.2 mm 2 mps 740 mmHg 89%
    12:00 +3°C° 0.2 mm 3 mps 740 mmHg 90%
    13:00 +3°C° 0.2 mm 4 mps 741 mmHg 91%
    14:00 +3°C° 0.1 mm 4 mps 741 mmHg 88%
    15:00 +2°C° 0.1 mm 5 mps 742 mmHg 86%
    16:00 +2°C° 0.1 mm 5 mps 743 mmHg 84%
    17:00 +2°C° 0.1 mm 6 mps 744 mmHg 86%
    18:00 +2°C° 0.1 mm 6 mps 745 mmHg 88%
    19:00 0°C° 0.1 mm 7 mps 746 mmHg 91%
    20:00 0°C° 0 mm 7 mps 747 mmHg 89%
    21:00 +1°C° 0 mm 6 mps 748 mmHg 87%
    22:00 +1°C° 0 mm 6 mps 749 mmHg 85%
    23:00 0°C° 0.1 mm 5 mps 750 mmHg 85%

    11 December, Wednesday

    Time Temperature Precipitation Wind Pressure Humidity
    00:00 0°C° 0.1 mm 5 mps 750 mmHg 85%
    01:00 -1°C° 0.1 mm 4 mps 751 mmHg 85%
    02:00 -1°C° 0 mm 4 mps 751 mmHg 86%
    03:00 -1°C° 0 mm 3 mps 751 mmHg 87%
    04:00 -2°C° 0 mm 3 mps 752 mmHg 89%
    05:00 -2°C° 0 mm 2 mps 752 mmHg 88%
    06:00 -2°C° 0 mm 2 mps 751 mmHg 87%
    07:00 -2°C° 0 mm 2 mps 751 mmHg 86%
    08:00 -2°C° 0 mm 2 mps 751 mmHg 82%
    09:00 -1°C° 0 mm 3 mps 751 mmHg 79%
    10:00 -1°C° 0 mm 3 mps 751 mmHg 75%
    11:00 -2°C° 0 mm 4 mps 750 mmHg 70%
    12:00 -1°C° 0 mm 4 mps 749 mmHg 65%
    13:00 -1°C° 0 mm 5 mps 749 mmHg 59%
    14:00 -1°C° 0 mm 5 mps 748 mmHg 59%
    15:00 -1°C° 0 mm 5 mps 748 mmHg 59%
    16:00 -2°C° 0 mm 5 mps 748 mmHg 59%
    17:00 -2°C° 0 mm 5 mps 747 mmHg 58%
    18:00 -2°C° 0 mm 5 mps 747 mmHg 57%
    19:00 -2°C° 0 mm 5 mps 747 mmHg 56%
    20:00 -1°C° 0 mm 5 mps 746 mmHg 55%
    21:00 -1°C° 0 mm 5 mps 746 mmHg 54%
    22:00 -1°C° 0 mm 5 mps 746 mmHg 54%
    23:00 -1°C° 0 mm 4 mps 746 mmHg 57%
    Show more